Weather History for Fort Smith, AR

Change the Weather History Date:

Monday, August 25, 2014

  Actual Average Record
Temperature  
Mean Temperature 87 °F 81 °F  
Max Temperature 99 °F 93 °F 104 °F (1963)
Min Temperature 74 °F 70 °F 52 °F (1891)
Cooling Degree Days 22 16  
Month to date cooling degree days 417 439  
Year to date cooling degree days 1552 1604  
Since 1 June cooling degree days 1274 1360  
Growing Degree Days 36 (Base 50)    
Moisture  
Dew Point 70 °F    
Average Humidity 65    
Maximum Humidity 94    
Minimum Humidity 35    
Precipitation  
Precipitation 0.00 in 0.08 in 1.76 in (2002)
Month to date precipitation 1.39 2.09  
Year to date precipitation 23.26 28.86  
Sea Level Pressure  
Sea Level Pressure 29.95 in    
Wind  
Wind Speed 5 mph (ENE)    
Max Wind Speed 13 mph    
Max Gust Speed 15 mph    
Visibility 10 miles    
Events      
T = Trace of Precipitation, MM = Missing Value Source: NWS Daily Summary

Daily Weather History Graph

Daily Weather History Graph

Search for Another Location

Airport:

Trip Planner

Search our weather history database for the weather conditions in past years. The results will help you decide how hot, cold, wet, or windy it might be!

Date:

Astronomy

Aug. 25, 2014 Rise Set
Actual Time 6:44 AM CDT 7:53 PM CDT
Civil Twilight 6:18 AM CDT 8:20 PM CDT
Nautical Twilight 5:46 AM CDT 8:51 PM CDT
Astronomical Twilight 5:14 AM CDT 9:23 PM CDT
Moon 6:48 AM CDT (8/25) 7:47 PM CDT (8/25)
Length of Visible Light 14h 01m
Length of Day
13h 09m
New Moon, 0% of the Moon is Illuminated
Aug 25
New Moon
Sep 2
First Quarter
Sep 8
Full
Sep 15
Last Quarter
Sep 24
New

Hourly Weather History & Observations

Time (CDT) Temp. Heat Index Dew Point Humidity Pressure Visibility Wind Dir Wind Speed Gust Speed Precip Events Conditions
12:53 AM 78.1 °F - 72.0 °F 81% 29.94 in 10.0 mi Calm Calm - N/A   Clear
1:53 AM 77.0 °F - 73.0 °F 88% 29.94 in 10.0 mi East 4.6 mph - N/A   Clear
2:53 AM 75.9 °F - 72.0 °F 87% 29.94 in 10.0 mi Calm Calm - N/A   Clear
3:53 AM 75.2 °F - 73.4 °F 94% 29.95 in 10.0 mi ENE 3.5 mph - N/A   Clear
4:53 AM 75.9 °F - 72.0 °F 87% 29.93 in 10.0 mi ENE 3.5 mph - N/A   Clear
5:53 AM 75.0 °F - 72.0 °F 90% 29.94 in 10.0 mi East 4.6 mph - N/A   Clear
6:53 AM 73.4 °F - 71.6 °F 94% 29.98 in 10.0 mi ENE 3.5 mph - N/A   Clear
7:53 AM 75.9 °F - 73.0 °F 91% 29.97 in 10.0 mi NE 5.8 mph - N/A   Clear
8:53 AM 80.6 °F 85.4 °F 73.4 °F 79% 30.00 in 10.0 mi East 5.8 mph - N/A   Clear
9:53 AM 84.9 °F 92.1 °F 73.9 °F 69% 29.99 in 10.0 mi NE 4.6 mph - N/A   Clear
10:53 AM 90.0 °F 97.9 °F 73.0 °F 57% 29.99 in 10.0 mi Calm Calm - N/A   Clear
11:53 AM 93.0 °F 100.1 °F 71.1 °F 49% 29.99 in 10.0 mi Calm Calm - N/A   Clear
12:53 PM 93.9 °F 98.6 °F 68.0 °F 43% 29.97 in 10.0 mi Calm Calm - N/A   Clear
1:53 PM 95.0 °F 101.3 °F 70.0 °F 44% 29.96 in 10.0 mi NE 8.1 mph - N/A   Clear
2:53 PM 96.1 °F 101.6 °F 69.1 °F 41% 29.94 in 10.0 mi Variable 4.6 mph - N/A   Clear
3:53 PM 98.1 °F 102.4 °F 66.9 °F 36% 29.91 in 10.0 mi East 6.9 mph - N/A   Clear
4:53 PM 98.1 °F 102.4 °F 66.9 °F 36% 29.90 in 10.0 mi ENE 6.9 mph - N/A   Clear
5:53 PM 96.1 °F 99.9 °F 66.9 °F 38% 29.91 in 10.0 mi ESE 9.2 mph - N/A   Clear
6:53 PM 93.9 °F 99.1 °F 69.1 °F 44% 29.90 in 10.0 mi SE 5.8 mph - N/A   Clear
7:53 PM 88.0 °F 90.7 °F 66.9 °F 49% 29.90 in 10.0 mi East 4.6 mph - N/A   Clear
8:53 PM 84.2 °F 86.6 °F 66.2 °F 55% 29.96 in 10.0 mi ENE 6.9 mph - N/A   Clear
9:53 PM 80.6 °F 83.2 °F 68.0 °F 65% 29.98 in 10.0 mi ENE 5.8 mph - N/A   Clear
10:53 PM 80.1 °F 82.9 °F 69.1 °F 69% 29.98 in 10.0 mi ENE 3.5 mph - N/A   Clear
11:53 PM 79.0 °F - 69.1 °F 72% 29.98 in 10.0 mi East 4.6 mph - N/A   Clear